| time (UTC) | temp F | wind direction | speed MPH | gust MPH | rain 1hr in | rain 24hr in | rain mn in | humidity % | barometer mb |
| 20260507060005 | 39 | 182 | 0.0 | 0.0 | 0.00 | 0.00 | 0.00 | 98 | 1004.2 |
| 20260507055026 | 40 | 182 | 0.0 | 0.0 | 0.00 | 0.00 | 0.00 | 98 | 1004.4 |
| 20260507053044 | 40 | 181 | 0.0 | 0.0 | 0.00 | 0.00 | 0.00 | 99 | 1004.3 |
| 20260507051015 | 40 | 182 | 0.0 | 0.0 | 0.00 | 0.00 | 0.00 | 99 | 1004.5 |
| 20260507050035 | 40 | 177 | 0.0 | 0.0 | 0.00 | 0.00 | 0.00 | 99 | 1004.7 |
| 20260507044039 | 40 | 193 | 0.0 | 0.0 | 0.00 | 0.00 | 0.00 | 99 | 1004.4 |
| 20260507042006 | 41 | 182 | 0.0 | 0.0 | 0.00 | 0.00 | 0.00 | 99 | 1004.4 |
| 20260507041004 | 41 | 176 | 0.0 | 0.0 | 0.00 | 0.00 | 0.00 | 99 | 1004.4 |
| 20260507035042 | 41 | 180 | 0.0 | 0.0 | 0.00 | 0.00 | 0.93 | 99 | 1004.2 |
| 20260507034036 | 41 | 199 | 1.0 | 2.0 | 0.00 | 0.00 | 0.93 | 99 | 1004.2 |
| 20260507033002 | 41 | 183 | 1.0 | 2.0 | 0.00 | 0.00 | 0.93 | 99 | 1004.1 |
| 20260507032034 | 41 | 196 | 0.0 | 0.0 | 0.00 | 0.00 | 0.93 | 99 | 1004.1 |
| 20260507031042 | 41 | 204 | 0.0 | 0.0 | 0.00 | 0.00 | 0.93 | 99 | 1004.1 |
| 20260507030013 | 41 | 204 | 0.0 | 0.0 | 0.00 | 0.00 | 0.93 | 99 | 1003.9 |
| 20260507025041 | 41 | 184 | 0.0 | 0.0 | 0.00 | 0.00 | 0.93 | 99 | 1003.9 |
| 20260507024019 | 41 | 173 | 0.0 | 0.0 | 0.00 | 0.00 | 0.93 | 99 | 1003.9 |
| 20260507023033 | 42 | 183 | 0.0 | 0.0 | 0.00 | 0.00 | 0.93 | 99 | 1003.9 |
| 20260507022019 | 42 | 179 | 0.0 | 0.0 | 0.00 | 0.00 | 0.93 | 99 | 1004.0 |
| 20260507021017 | 42 | 177 | 0.0 | 0.0 | 0.00 | 0.00 | 0.93 | 99 | 1003.8 |
| 20260507015019 | 42 | 185 | 0.0 | 0.0 | 0.00 | 0.00 | 0.93 | 99 | 1004.0 |
| 20260507014027 | 42 | 182 | 0.0 | 0.0 | 0.00 | 0.00 | 0.93 | 99 | 1003.8 |
| 20260507013020 | 42 | 187 | 0.0 | 0.0 | 0.00 | 0.00 | 0.93 | 99 | 1003.8 |
| 20260507010039 | 43 | 194 | 1.0 | 2.0 | 0.00 | 0.00 | 0.93 | 99 | 1003.6 |
| 20260507005011 | 43 | 168 | 0.0 | 0.0 | 0.00 | 0.00 | 0.93 | 99 | 1003.3 |
| 20260507004036 | 42 | 189 | 0.0 | 0.0 | 0.00 | 0.00 | 0.93 | 99 | 1003.2 |
| 20260507003015 | 43 | 318 | 1.0 | 2.0 | 0.07 | 0.00 | 0.93 | 99 | 1003.2 |
| 20260507002026 | 44 | 284 | 2.0 | 3.0 | 0.24 | 0.00 | 0.92 | 98 | 1003.0 |
| 20260507001027 | 46 | 222 | 1.0 | 3.0 | 0.00 | 0.00 | 0.88 | 98 | 1002.5 |
| 20260506235024 | 46 | 184 | 0.0 | 0.0 | 0.12 | 0.00 | 0.87 | 97 | 1002.7 |
| 20260506234013 | 47 | 157 | 0.0 | 0.0 | 0.00 | 0.00 | 0.85 | 95 | 1002.2 |
| 20260506233038 | 47 | 156 | 0.0 | 0.0 | 0.00 | 0.00 | 0.85 | 93 | 1002.0 |
| 20260506232013 | 48 | 144 | 0.0 | 0.0 | 0.00 | 0.00 | 0.85 | 90 | 1001.8 |
| 20260506231005 | 48 | 149 | 0.0 | 0.0 | 0.00 | 0.00 | 0.85 | 91 | 1001.7 |
| 20260506230013 | 48 | 150 | 0.0 | 0.0 | 0.00 | 0.00 | 0.85 | 89 | 1001.6 |
| 20260506225021 | 48 | 145 | 0.0 | 0.0 | 0.00 | 0.00 | 0.85 | 90 | 1001.8 |
| 20260506224008 | 48 | 168 | 0.0 | 0.0 | 0.05 | 0.00 | 0.85 | 89 | 1001.4 |
| 20260506223003 | 48 | 125 | 2.0 | 2.0 | 0.00 | 0.00 | 0.84 | 90 | 1001.6 |
| 20260506222039 | 48 | 152 | 0.0 | 0.0 | 0.00 | 0.00 | 0.84 | 89 | 1001.5 |
| 20260506220029 | 47 | 172 | 0.0 | 0.0 | 0.00 | 0.00 | 0.84 | 89 | 1001.4 |
| 20260506215035 | 47 | 153 | 0.0 | 0.0 | 0.00 | 0.00 | 0.84 | 91 | 1001.3 |
| 20260506212016 | 48 | 140 | 0.0 | 0.0 | 0.00 | 0.00 | 0.84 | 88 | 1001.5 |
| 20260506211017 | 48 | 259 | 1.0 | 2.0 | 0.00 | 0.00 | 0.84 | 88 | 1001.8 |
| 20260506205014 | 48 | 173 | 0.0 | 0.0 | 0.00 | 0.00 | 0.84 | 86 | 1001.3 |
| 20260506204010 | 48 | 171 | 0.0 | 0.0 | 0.00 | 0.00 | 0.84 | 88 | 1001.3 |
| 20260506203046 | 47 | 180 | 0.0 | 0.0 | 0.00 | 0.00 | 0.84 | 88 | 1001.3 |
| 20260506202023 | 47 | 184 | 0.0 | 0.0 | 0.00 | 0.00 | 0.84 | 90 | 1001.2 |
| 20260506201011 | 47 | 227 | 0.0 | 0.0 | 0.00 | 0.00 | 0.84 | 90 | 1001.6 |
| 20260506195012 | 47 | 183 | 0.0 | 0.0 | 0.00 | 0.00 | 0.84 | 91 | 1001.5 |
| 20260506194043 | 48 | 182 | 1.0 | 2.0 | 0.00 | 0.00 | 0.84 | 90 | 1001.5 |
| 20260506192022 | 46 | 314 | 2.0 | 3.0 | 0.00 | 0.00 | 0.84 | 92 | 1001.3 |
| 20260506191014 | 46 | 194 | 1.0 | 2.0 | 0.00 | 0.00 | 0.84 | 95 | 1001.6 |
| 20260506190040 | 46 | 122 | 1.0 | 2.0 | 0.00 | 0.00 | 0.84 | 97 | 1001.6 |
| 20260506185040 | 45 | 163 | 0.0 | 0.0 | 0.00 | 0.00 | 0.84 | 99 | 1001.8 |
| 20260506183016 | 44 | 158 | 1.0 | 2.0 | 0.00 | 0.00 | 0.84 | 99 | 1001.5 |
| 20260506182012 | 45 | 176 | 0.0 | 0.0 | 0.00 | 0.00 | 0.84 | 99 | 1001.5 |
| 20260506181003 | 44 | 205 | 1.0 | 2.0 | 0.00 | 0.00 | 0.84 | 99 | 1001.7 |
| 20260506180033 | 44 | 184 | 0.0 | 0.0 | 0.00 | 0.00 | 0.84 | 99 | 1001.6 |
| 20260506175015 | 44 | 184 | 0.0 | 0.0 | 0.00 | 0.00 | 0.84 | 99 | 1001.5 |
| 20260506174031 | 45 | 204 | 1.0 | 2.0 | 0.00 | 0.00 | 0.84 | 99 | 1001.2 |
| 20260506173032 | 45 | 158 | 0.0 | 0.0 | 0.00 | 0.00 | 0.84 | 99 | 1001.2 |
| 20260506172029 | 45 | 187 | 0.0 | 0.0 | 0.00 | 0.00 | 0.84 | 99 | 1001.0 |
| 20260506171004 | 46 | 184 | 1.0 | 2.0 | 0.00 | 0.00 | 0.84 | 99 | 1000.7 |
| 20260506170003 | 45 | 168 | 1.0 | 2.0 | 0.00 | 0.00 | 0.84 | 99 | 1000.9 |
| 20260506165008 | 44 | 153 | 1.0 | 2.0 | 0.00 | 0.00 | 0.84 | 99 | 1001.0 |
| 20260506164020 | 44 | 144 | 1.0 | 2.0 | 0.00 | 0.00 | 0.84 | 99 | 1001.2 |
| 20260506163034 | 45 | 158 | 1.0 | 2.0 | 0.00 | 0.00 | 0.84 | 99 | 1000.8 |
| 20260506155015 | 44 | 179 | 1.0 | 2.0 | 0.00 | 0.00 | 0.84 | 99 | 1000.9 |
| 20260506153024 | 45 | 189 | 1.0 | 2.0 | 0.00 | 0.00 | 0.84 | 99 | 1000.6 |
| 20260506152013 | 45 | 162 | 0.0 | 0.0 | 0.00 | 0.00 | 0.84 | 99 | 1000.6 |
| 20260506151044 | 45 | 169 | 0.0 | 0.0 | 0.00 | 0.00 | 0.84 | 99 | 1000.6 |
| 20260506150032 | 44 | 180 | 0.0 | 0.0 | 0.07 | 0.00 | 0.84 | 99 | 1000.6 |
| 20260506145038 | 44 | 197 | 1.0 | 2.0 | 0.00 | 0.00 | 0.83 | 99 | 1000.5 |
| 20260506144034 | 44 | 193 | 1.0 | 2.0 | 0.00 | 0.00 | 0.83 | 99 | 1000.4 |
| 20260506143034 | 43 | 171 | 0.0 | 0.0 | 0.00 | 0.00 | 0.83 | 99 | 1000.3 |
| 20260506141011 | 44 | 157 | 2.0 | 3.0 | 0.00 | 0.00 | 0.82 | 99 | 1000.1 |
| 20260506135025 | 43 | 108 | 2.0 | 2.0 | 0.07 | 0.00 | 0.82 | 99 | 1000.4 |
| 20260506134002 | 43 | 150 | 1.0 | 2.0 | 0.00 | 0.00 | 0.81 | 99 | 1000.2 |
| 20260506133007 | 43 | 160 | 0.0 | 0.0 | 0.05 | 0.00 | 0.81 | 99 | 1000.3 |
| 20260506131014 | 42 | 166 | 0.0 | 0.0 | 0.00 | 0.00 | 0.80 | 99 | 999.9 |
| 20260506130005 | 42 | 139 | 2.0 | 3.0 | 0.00 | 0.00 | 0.80 | 99 | 1000.1 |
| 20260506125004 | 42 | 153 | 0.0 | 0.0 | 0.07 | 0.00 | 0.80 | 99 | 1000.2 |
| 20260506124017 | 42 | 158 | 0.0 | 0.0 | 0.00 | 0.00 | 0.79 | 99 | 1000.3 |
| 20260506123043 | 42 | 147 | 3.0 | 4.0 | 0.00 | 0.00 | 0.79 | 99 | 1000.1 |
| 20260506122020 | 42 | 154 | 0.0 | 0.0 | 0.05 | 0.00 | 0.79 | 99 | 1000.3 |
| 20260506121010 | 42 | 139 | 1.0 | 2.0 | 0.07 | 0.00 | 0.78 | 99 | 1000.4 |
| 20260506120039 | 42 | 116 | 1.0 | 2.0 | 0.07 | 0.00 | 0.77 | 99 | 1000.4 |
| 20260506115030 | 42 | 155 | 0.0 | 0.0 | 0.00 | 0.00 | 0.76 | 99 | 1000.4 |
| 20260506114023 | 42 | 216 | 2.0 | 3.0 | 0.00 | 0.00 | 0.76 | 99 | 1000.3 |
| 20260506113031 | 42 | 157 | 1.0 | 2.0 | 0.05 | 0.00 | 0.76 | 99 | 999.9 |
| 20260506112037 | 42 | 157 | 0.0 | 0.0 | 0.00 | 0.00 | 0.75 | 99 | 999.9 |
| 20260506111045 | 42 | 109 | 3.0 | 6.0 | 0.07 | 0.00 | 0.75 | 99 | 1000.3 |
| 20260506110043 | 43 | 137 | 2.0 | 4.0 | 0.05 | 0.00 | 0.74 | 99 | 1000.0 |
| 20260506105032 | 43 | 256 | 2.0 | 3.0 | 0.00 | 0.00 | 0.73 | 99 | 1000.2 |
| 20260506102045 | 43 | 142 | 2.0 | 2.0 | 0.12 | 0.00 | 0.71 | 99 | 1000.6 |
| 20260506101024 | 43 | 166 | 0.0 | 0.0 | 0.07 | 0.00 | 0.69 | 99 | 1000.7 |
| 20260506100027 | 43 | 227 | 1.0 | 2.0 | 0.12 | 0.00 | 0.68 | 99 | 1000.5 |
| 20260506095028 | 43 | 153 | 2.0 | 2.0 | 0.12 | 0.00 | 0.66 | 99 | 1000.5 |
| 20260506093002 | 44 | 179 | 0.0 | 0.0 | 0.12 | 0.00 | 0.63 | 99 | 1000.4 |
| 20260506092005 | 44 | 163 | 0.0 | 0.0 | 0.00 | 0.00 | 0.61 | 99 | 1000.3 |
| 20260506090040 | 44 | 183 | 0.0 | 0.0 | 0.07 | 0.00 | 0.60 | 99 | 1000.0 |
| 20260506085008 | 44 | 133 | 3.0 | 4.0 | 0.05 | 0.00 | 0.59 | 99 | 1000.1 |
| 20260506084009 | 44 | 353 | 3.0 | 4.0 | 0.12 | 0.00 | 0.58 | 99 | 1000.4 |
| 20260506083030 | 44 | 195 | 0.0 | 0.0 | 0.07 | 0.00 | 0.56 | 99 | 1000.2 |
| 20260506082015 | 44 | 152 | 2.0 | 3.0 | 0.12 | 0.00 | 0.55 | 99 | 1000.0 |
| 20260506081030 | 44 | 90 | 4.0 | 5.0 | 0.19 | 0.00 | 0.53 | 99 | 1000.4 |
| 20260506073044 | 45 | 201 | 1.0 | 2.0 | 0.12 | 0.00 | 0.45 | 99 | 1000.5 |
| 20260506072042 | 45 | 204 | 1.0 | 2.0 | 0.19 | 0.00 | 0.43 | 99 | 1000.3 |
| 20260506071021 | 45 | 93 | 2.0 | 3.0 | 0.12 | 0.00 | 0.40 | 99 | 1000.2 |
| 20260506062022 | 46 | 170 | 0.0 | 0.0 | 0.24 | 0.00 | 0.23 | 99 | 1000.7 |
| 20260506061006 | 46 | 160 | 0.0 | 0.0 | 0.19 | 0.00 | 0.19 | 99 | 1000.1 |